Hourly Data Report for January 17, 2021

STE-ANNE-DE-BELLEVUE 1
QUEBEC
Current Station Operator: ECCC - MSC

45°25'38.000" N
73°55'45.000" W
39.00 m
702FHL8
71377
WVQ

Download Data

Hourly Data (January 2021)
Hourly Data Report for January 17, 2021
TIME
LST
Temp Definition
°C
Dew Point Definition
°C
Rel Hum Definition
%
Precip. Amount Definition
mm

Wind Dir Definition
10's deg

Wind Spd Definition
km/h
Visibility Definition
km
Stn Press Definition
kPa
Hmdx Definition


Wind Chill Definition


Weather Definition


00:00 -0.8 -1.2 97 0.2 32 10   98.41   -4 LegendNANA
01:00 -0.5 -0.7 98 0.3 28 11   98.40   -4 LegendNANA
02:00 -0.4 -0.7 98 0.5 28 8   98.41   -3 LegendNANA
03:00 -0.5 -0.7 98 0.2 27 6   98.41   -3 LegendNANA
04:00 -0.2 -0.4 98 0.2 25 8   98.43   -3 LegendNANA
05:00 0.2 0.0 98 0.2 26 12   98.44     LegendNANA
06:00 0.3 0.0 98 0.0 26 13   98.46     LegendNANA
07:00 0.3 -0.2 97 0.0 26 16   98.50     LegendNANA
08:00 0.3 -0.5 95 0.0 27 17   98.54     LegendNANA
09:00 0.3 -0.6 94 0.0 27 16   98.63     LegendNANA
10:00 0.5 -0.7 92 1.5 26 18   98.71     LegendNANA
11:00 0.6 -1.1 89 0.0 27 19   98.76     LegendNANA
12:00 0.4 -1.6 86 0.0 26 22   98.78     LegendNANA
13:00 0.2 -2.0 85 0.0 26 21   98.86     LegendNANA
14:00 -0.4 -2.1 88 0.0 26 19   98.93   -6 LegendNANA
15:00 -1.0 -2.9 87 0.0 26 23   99.05   -7 LegendNANA
16:00 -1.9 -3.6 88 0.0 25 20   99.20   -8 LegendNANA
17:00 -2.4 -4.4 86 0.0 26 20   99.31   -8 LegendNANA
18:00 -2.8 -4.8 86 0.0 26 19   99.40   -9 LegendNANA
19:00 -3.5 -5.6 85 0.0 26 21   99.46   -10 LegendNANA
20:00 -4.0 -6.2 85 0.0 26 18   99.51   -10 LegendNANA
21:00 -4.6 -6.8 85 0.0 26 18   99.55   -11 LegendNANA
22:00 -5.1 -7.2 85 0.0 26 22   99.59   -12 LegendNANA
23:00 -4.6 -7.2 82 0.0 27 21   99.60   -11 LegendNANA

Notes on Data Quality.

Legend

  • E = Estimated
  • M = Missing
  • NA = Not Available*
  • [empty] = Indicates an unobserved value
Date modified: